Location: Pinhead Observatory
(34.4473°N, 118.1985°W)
Time: 02:36:17
(UTC-07:00)

CZ-4C R/B - Visible Passes

Search period start: 29 May 2016 00:00
Search period end: 08 June 2016 00:00
Orbit: 743 x 1259 km, 63.4° (Epoch: 27 May)

Date Brightness Start Highest point End Pass type
(mag) Time Alt. Az. Time Alt. Az. Time Alt. Az.
29 May 4.3 01:29:02 16° WNW 01:30:40 18° NW 01:34:36 10° N visible
29 May 4.4 22:30:35 11° ENE 22:30:35 11° ENE 22:30:57 10° ENE visible
30 May 3.0 00:15:43 46° NNW 00:15:43 46° NNW 00:20:43 10° NNE visible
30 May 3.1 23:02:16 34° ENE 23:02:16 34° ENE 23:05:44 10° NE visible
31 May 4.1 00:47:23 19° WNW 00:49:05 22° NW 00:53:33 10° N visible
31 May 4.3 21:48:42 10° ENE 21:48:42 10° ENE 21:48:48 10° ENE visible
31 May 2.5 23:33:48 60° NW 23:33:48 60° NW 23:39:24 10° NNE visible
01 Jun 5.0 01:22:33 10° NW 01:23:35 10° NNW 01:24:39 10° NNW visible
01 Jun 2.8 22:20:01 36° E 22:20:01 36° E 22:24:11 10° NE visible
02 Jun 4.0 00:05:06 19° W 00:07:33 26° NW 00:12:26 10° N visible
02 Jun 2.1 22:51:02 54° SW 22:52:16 77° WNW 22:58:03 10° NNE visible
03 Jun 4.9 00:39:30 10° WNW 00:41:55 13° NW 00:44:26 10° N visible
03 Jun 2.8 21:36:29 28° SE 21:37:41 31° ESE 21:42:34 10° NE visible
03 Jun 3.7 23:21:30 11° WSW 23:26:02 32° NW 23:31:15 10° NNE visible
04 Jun 5.9 05:01:46 10° NNE 05:02:17 10° NNE 05:02:48 10° NE visible
04 Jun 2.0 22:05:49 11° SSW 22:10:54 84° ESE 22:16:41 10° NNE visible
04 Jun 4.9 23:57:07 10° WNW 00:00:17 15° NW 00:03:39 10° N visible
05 Jun 3.1 20:52:21 10° SSE 20:56:27 24° ESE 21:00:49 10° ENE visible
05 Jun 3.4 22:39:36 10° WSW 22:44:33 39° NW 22:50:02 10° NNE visible
06 Jun 2.0 21:24:25 10° SSW 21:29:34 66° ESE 21:35:15 10° NE visible
06 Jun 4.8 23:14:57 10° W 23:18:41 18° NW 23:22:41 10° N visible
07 Jun 5.6 04:50:59 10° N 04:55:20 17° NE 04:59:55 10° ENE visible
07 Jun 3.1 21:58:00 10° SW 22:03:06 49° NW 22:08:45 10° NNE visible
